Погода в Умм-аль-Джимале

Иордания     32°19′48″N   36°22′02″E
темп.,
°C
ветер,
м/с
пор.,
м/с
влажн.,
%
обл.,
%
осадки,
мм/ч
давл.,
гПа
погр.,
м
10 августа, ср
ср1000:00+22ссз46640 0.0 1009199
03:00+21ссз46800 0.0 1008270
06:00+20сз35870 0.0 1008128
09:00+25сз67590 0.0 1008788
12:00+30зсз56330 0.0 10071208
15:00+33зсз88270 0.0 10051437
18:00+30зсз88340 0.0 10051144
21:00+24сз79630 0.0 1007468
11 августа, чт
чт1100:00+22сз46780 0.0 1007278
03:00+21сз34863 0.0 1007133
06:00+20сз23920 0.0 100838
09:00+25зсз45580 0.0 1008748
12:00+31сз55300 0.0 10071368
15:00+34зсз78260 0.0 10051556
18:00+31зсз88300 0.0 10061138
21:00+25сз47530 0.0 1008231
12 августа, пт
пт1200:00+23сз34580 0.0 100852
03:00+21ссз22610 0.0 100817
06:00+21с33640 0.0 100821
09:00+26ссз44350 0.0 1008490
12:00+33зсз34160 0.0 10071163
15:00+36зсз66170 0.0 10051477
18:00+32сз77230 0.0 1006913
21:00+26ссз46360 0.0 1008111
13 августа, сб
сб1300:00+24ссз33390 0.0 100831
03:00+22ссз23420 0.0 100821
06:00+20ссз22500 0.0 100820
09:00+26сз45320 0.0 1008555
12:00+32сз66190 0.0 10071128
15:00+34зсз77190 0.0 10051358
18:00+31зсз77260 0.0 1006921
21:00+24сз46540 0.0 1007139
14 августа, вс
вс1400:00+21ссз34720 0.0 100867
03:00+20ссз34890 0.0 100799
06:00+19сз23940 0.0 100740
09:00+24сз45600 0.0 1008611
12:00+32сз55280 0.0 10061204
15:00+34зсз77240 0.0 10051482
18:00+31зсз77330 0.0 1005996
21:00+24сз56620 0.0 1007175